Location: Gazon
(48.1318°N, 1.2708°W)
Time: 23:19:45
(UTC+00:00)

NOSS 8 (H) - Pass Details

Date: 18 September 2020
Orbit: 384 x 1790 km, 63.3° (Epoch: 25 October)

Event Time Altitude Azimuth Distance (km) Brightness Sun altitude
Rises 19:06:27 0° 217° (SW) 2,448 8.5 -10.1°
Reaches altitude 10° 19:08:38 10° 217° (SW) 1,488 7.3 -10.4°
Maximum altitude 19:11:47 81° 129° (SE) 398 4.0 -10.9°
Drops below altitude 10° 19:14:47 10° 43° (NE) 1,426 6.7 -11.4°
Enters shadow 19:16:38 - 42° (NE) 2,239 7.7 -11.7°
